User: anonymous   Login
Location: Unspecified
(0.0000°N, 0.0000°E)
Time: 21:28:49
(UTC+00:00)
Language:

ONEWEB-0371 - Orbit

View from above orbital plane
View from above orbital plane
View from above satellite
View from above satellite

Ground track
Ground track

The orbit is defined by the following mean orbital elements,

1 49297U          26145.21737775 +.00000000 +00000-0 -98682-4 0 00009
2 49297  87.9154 309.5446 0001689  94.6446 265.4880 13.19726368    04
Epoch (UTC): 25 May 2026 05:13:01
Eccentricity: 0.0001689
inclination: 87.9154°
perigee height: 1184 km
apogee height: 1187 km
right ascension of ascending node: 309.5446°
argument of perigee: 94.6446°
revolutions per day: 13.19726368
mean anomaly at epoch: 265.4880°

The dashed part of the orbit path shows where the satellite is in the earth's shadow,  

DLR